EDT,Max TemperatureF,Mean TemperatureF,Min TemperatureF,Max Dew PointF,MeanDew PointF,Min DewpointF,Max Humidity, Mean Humidity, Min Humidity, Max Sea Level PressureIn, Mean Sea Level PressureIn, Min Sea Level PressureIn, Max VisibilityMiles, Mean VisibilityMiles, Min VisibilityMiles, Max Wind SpeedMPH, Mean Wind SpeedMPH, Max Gust SpeedMPH,PrecipitationIn, CloudCover, Events, WindDirDegrees
2013-9-1,81,74,67,70,67,64,93,78,62,29.83,29.80,29.75,10,7,0,12,4,14,0.81,6,Fog-Rain-Thunderstorm,169
2013-9-2,77,72,67,70,65,55,90,76,61,29.84,29.77,29.74,10,9,2,17,8,23,0.03,6,Rain,252
2013-9-3,67,64,60,58,55,53,84,74,63,30.02,29.92,29.84,10,10,7,15,9,24,T,8,Rain,283
2013-9-4,75,67,59,60,56,53,84,69,53,30.07,30.04,30.01,10,10,10,20,10,28,0.00,1,,230
2013-9-5,70,62,54,61,49,42,66,55,44,30.24,30.15,30.01,10,10,10,15,8,20,0.00,3,,345
2013-9-6,68,58,48,51,44,40,80,62,43,30.30,30.23,30.12,10,10,10,12,6,15,0.00,0,,166
2013-9-7,77,67,56,65,54,43,87,64,41,30.11,30.01,29.91,10,9,2,15,7,21,0.15,4,Rain,199
2013-9-8,72,64,56,67,57,46,90,71,52,30.10,30.00,29.89,10,9,5,24,11,31,T,5,Rain,46
2013-9-9,76,65,54,66,58,45,90,75,60,30.10,30.05,29.98,10,8,1,17,10,23,0.29,3,Rain,165
2013-9-10,91,83,74,73,69,66,79,63,47,30.05,30.00,29.95,10,9,7,18,11,25,0.00,0,,211
2013-9-11,90,80,70,73,69,66,79,63,47,30.07,30.02,29.93,10,8,1,22,9,33,0.48,2,Rain-Thunderstorm,213
2013-9-12,74,69,64,67,63,51,90,72,53,29.94,29.86,29.81,10,9,2,16,8,23,0.13,5,Rain,256
2013-9-13,64,59,54,54,47,40,72,64,55,30.07,29.94,29.83,10,10,10,16,12,23,0.00,8,,354
2013-9-14,60,55,49,45,41,37,80,65,49,30.17,30.13,30.06,10,10,10,13,6,18,0.00,3,,328
2013-9-15,68,59,49,56,48,42,84,66,48,30.18,30.12,30.07,10,10,7,15,6,20,0.05,3,Rain,194
2013-9-16,62,55,47,54,51,42,93,83,72,30.37,30.22,30.10,10,10,9,20,7,24,T,7,Rain,32
2013-9-17,64,52,40,49,43,37,92,72,51,30.46,30.37,30.28,10,10,10,14,6,16,0.00,0,,91
2013-9-18,73,61,48,53,46,38,72,60,47,30.26,30.19,30.11,10,10,10,15,8,18,0.00,0,,145
2013-9-19,76,67,57,63,57,50,87,73,58,30.12,30.07,30.01,10,9,6,14,8,18,0.00,0,,178
2013-9-20,79,71,63,67,64,59,90,79,67,30.00,29.89,29.76,10,6,4,23,13,29,0.06,2,Rain,179
2013-9-21,70,64,58,66,60,48,93,79,64,29.80,29.71,29.65,10,7,0,26,7,48,1.95,8,Fog-Rain,243
2013-9-22,58,56,53,48,44,39,72,64,55,30.06,29.93,29.81,10,10,10,15,9,21,T,8,,349
2013-9-23,59,52,44,44,41,39,92,72,51,30.18,30.13,30.06,10,10,10,12,5,17,0.00,5,,11
2013-9-24,63,53,43,50,44,39,83,72,60,30.16,30.11,30.01,10,10,10,12,4,15,0.00,2,,177
2013-9-25,69,57,45,51,47,43,93,71,49,30.01,29.98,29.95,10,10,10,13,4,15,0.00,0,,49
2013-9-26,69,57,45,52,47,43,93,68,42,30.14,30.07,29.99,10,10,10,18,5,22,0.00,0,,45
2013-9-27,67,58,48,54,51,45,93,76,58,30.25,30.21,30.14,10,10,10,18,6,24,0.00,0,,49
2013-9-28,75,65,54,53,50,47,93,67,41,30.27,30.21,30.13,10,10,10,20,10,29,0.00,0,,156
2013-9-29,73,65,56,58,52,47,78,68,57,30.13,30.05,29.99,10,10,10,21,12,28,0.00,2,,169
2013-9-30,68,64,59,62,59,54,90,84,78,30.02,30.00,29.98,10,8,2,13,7,16,0.03,7,Rain,199